DLH2259 LFBD-EDDM

Flight info

Callsign DLH2259
Flight time 1h 29m
Altitude 34000
Route OBLOC DCT SECHE DCT NARAK DCT DITEV DCT MEN DCT NINUN DCT LATAM DCT ETREK/N0405F300 DCT LTP DCT SOPLO DCT OMASI DCT KINNI/N0436F360 DCT SOSAL DCT KORED DCT BERSU N871 DITON/N0436F370 DCT NUNRI T103 BETOS BETOS1B
Aircraft A320/M-SDE2E3FGIJ1LORWXYZ/HB1

Departure

Time 2026-05-06 20:42
Airport Bordeaux–Mérignac Airport (LFBD)

Arrival

Time 2026-05-06 22:12
Airport Munich Airport (EDDM)
Time Latitude Longitude Altitude Speed Heading
2026-05-06 20:20 44.83258 -0.70271 163 ft 0 kts 186°
2026-05-06 20:34 44.83259 -0.70271 163 ft 1 kts 186°
2026-05-06 20:34 44.83283 -0.70269 163 ft 4 kts 173°
2026-05-06 20:35 44.83309 -0.70277 163 ft 4 kts 163°
2026-05-06 20:35 44.83335 -0.70286 162 ft 4 kts 184°
2026-05-06 20:35 44.83358 -0.70275 162 ft 2 kts 219°
2026-05-06 20:35 44.83363 -0.70269 162 ft 0 kts 220°
2026-05-06 20:38 44.83362 -0.70270 162 ft 1 kts 220°
2026-05-06 20:38 44.83316 -0.70327 162 ft 14 kts 223°
2026-05-06 20:38 44.83245 -0.70427 163 ft 15 kts 225°
2026-05-06 20:39 44.83169 -0.70536 164 ft 16 kts 225°
2026-05-06 20:39 44.83090 -0.70649 164 ft 16 kts 219°
2026-05-06 20:39 44.83009 -0.70753 165 ft 16 kts 218°
2026-05-06 20:39 44.82917 -0.70793 166 ft 15 kts 141°
2026-05-06 20:40 44.82887 -0.70676 166 ft 12 kts 106°
2026-05-06 20:40 44.82866 -0.70575 167 ft 10 kts 106°
2026-05-06 20:40 44.82835 -0.70428 167 ft 19 kts 106°
2026-05-06 20:40 44.82799 -0.70253 168 ft 18 kts 108°
2026-05-06 20:41 44.82766 -0.70095 168 ft 16 kts 105°
2026-05-06 20:41 44.82729 -0.69963 169 ft 14 kts 133°
2026-05-06 20:41 44.82619 -0.69964 170 ft 15 kts 200°
2026-05-06 20:41 44.82565 -0.70092 170 ft 23 kts 289°
2026-05-06 20:42 44.82643 -0.70480 169 ft 71 kts 286°
2026-05-06 20:42 44.82844 -0.71449 165 ft 132 kts 286°
2026-05-06 20:42 44.83129 -0.72806 606 ft 144 kts 287°
2026-05-06 20:42 44.83275 -0.73718 1081 ft 146 kts 273°
2026-05-06 20:43 44.82693 -0.75446 1998 ft 159 kts 218°
2026-05-06 20:43 44.81599 -0.75928 2433 ft 180 kts 180°
2026-05-06 20:43 44.80742 -0.75793 2619 ft 195 kts 172°
2026-05-06 20:43 44.78818 -0.75270 2981 ft 227 kts 169°
2026-05-06 20:44 44.77756 -0.74957 3215 ft 243 kts 169°
2026-05-06 20:44 44.76019 -0.74446 3625 ft 267 kts 169°
2026-05-06 20:44 44.74160 -0.73910 4349 ft 276 kts 169°
2026-05-06 20:44 44.72308 -0.73126 5205 ft 282 kts 153°
2026-05-06 20:45 44.70751 -0.71445 6073 ft 285 kts 129°
2026-05-06 20:45 44.69757 -0.69050 6918 ft 286 kts 107°
2026-05-06 20:45 44.69453 -0.66303 7750 ft 286 kts 90°
2026-05-06 20:45 44.69371 -0.63488 8606 ft 289 kts 91°
2026-05-06 20:46 44.69285 -0.60648 9440 ft 293 kts 91°
2026-05-06 20:46 44.69194 -0.57770 10226 ft 297 kts 91°
2026-05-06 20:46 44.69097 -0.54756 10511 ft 320 kts 91°
2026-05-06 20:46 44.68991 -0.51536 10904 ft 336 kts 91°
2026-05-06 20:47 44.68878 -0.48225 11580 ft 342 kts 92°
2026-05-06 20:47 44.68760 -0.44867 12309 ft 346 kts 92°
2026-05-06 20:47 44.68645 -0.41478 13036 ft 349 kts 91°
2026-05-06 20:47 44.68577 -0.38045 13755 ft 353 kts 90°
2026-05-06 20:48 44.68546 -0.34577 14383 ft 357 kts 90°
2026-05-06 20:48 44.68534 -0.31088 15006 ft 360 kts 89°
2026-05-06 20:48 44.68528 -0.27545 15632 ft 363 kts 89°
2026-05-06 20:48 44.68521 -0.23982 16261 ft 366 kts 89°
2026-05-06 20:49 44.68506 -0.20387 16887 ft 369 kts 89°
2026-05-06 20:49 44.68482 -0.16762 17510 ft 372 kts 89°
2026-05-06 20:49 44.68449 -0.13108 18127 ft 376 kts 89°
2026-05-06 20:49 44.68413 -0.09427 18669 ft 379 kts 89°
2026-05-06 20:50 44.68375 -0.05708 19188 ft 382 kts 89°
2026-05-06 20:50 44.68337 -0.01966 19702 ft 385 kts 89°
2026-05-06 20:50 44.68299 0.01820 20223 ft 388 kts 89°
2026-05-06 20:50 44.68261 0.05621 20734 ft 391 kts 89°
2026-05-06 20:51 44.68219 0.09460 21226 ft 394 kts 89°
2026-05-06 20:51 44.68175 0.13328 21712 ft 397 kts 89°
2026-05-06 20:51 44.68130 0.17228 22185 ft 400 kts 89°
2026-05-06 20:51 44.68087 0.21154 22664 ft 403 kts 88°
2026-05-06 20:52 44.68044 0.25110 23137 ft 406 kts 88°
2026-05-06 20:52 44.67999 0.29090 23591 ft 409 kts 88°
2026-05-06 20:52 44.67949 0.33110 23980 ft 412 kts 88°
2026-05-06 20:52 44.67897 0.37149 24369 ft 415 kts 89°
2026-05-06 20:53 44.67841 0.41212 24777 ft 417 kts 88°
2026-05-06 20:53 44.67784 0.45291 25162 ft 419 kts 89°
2026-05-06 20:53 44.67725 0.49389 25535 ft 421 kts 89°
2026-05-06 20:53 44.67665 0.53521 25902 ft 424 kts 89°
2026-05-06 20:54 44.67608 0.57673 26264 ft 426 kts 89°
2026-05-06 20:54 44.67548 0.61844 26626 ft 429 kts 89°
2026-05-06 20:54 44.67486 0.65990 26963 ft 431 kts 89°
2026-05-06 20:54 44.67419 0.70209 27313 ft 433 kts 89°
2026-05-06 20:55 44.67350 0.74454 27659 ft 436 kts 89°
2026-05-06 20:55 44.67279 0.78719 28032 ft 438 kts 89°
2026-05-06 20:55 44.67205 0.83009 28388 ft 440 kts 89°
2026-05-06 20:55 44.67131 0.87312 28722 ft 442 kts 89°
2026-05-06 20:56 44.67054 0.91641 29050 ft 445 kts 89°
2026-05-06 20:56 44.66975 0.95997 29378 ft 447 kts 89°
2026-05-06 20:56 44.66897 1.00369 29704 ft 449 kts 89°
2026-05-06 20:56 44.66815 1.04772 30007 ft 452 kts 89°
2026-05-06 20:57 44.66728 1.09190 30271 ft 454 kts 89°
2026-05-06 20:57 44.66638 1.13639 30524 ft 456 kts 89°
2026-05-06 20:57 44.66549 1.18105 30784 ft 458 kts 89°
2026-05-06 20:57 44.66462 1.22580 31022 ft 460 kts 89°
2026-05-06 20:58 44.66373 1.27085 31260 ft 462 kts 89°
2026-05-06 20:58 44.66279 1.31590 31579 ft 462 kts 89°
2026-05-06 20:58 44.66180 1.36101 31906 ft 462 kts 90°
2026-05-06 20:58 44.66077 1.40613 32229 ft 462 kts 90°
2026-05-06 20:59 44.65973 1.45115 32544 ft 462 kts 90°
2026-05-06 20:59 44.65868 1.49627 32857 ft 462 kts 90°
2026-05-06 20:59 44.65761 1.54132 33172 ft 462 kts 91°
2026-05-06 20:59 44.65653 1.58652 33452 ft 463 kts 91°
2026-05-06 21:00 44.65547 1.63182 33743 ft 464 kts 91°
2026-05-06 21:00 44.65437 1.67716 33952 ft 465 kts 91°
2026-05-06 21:00 44.65325 1.72215 33992 ft 457 kts 91°
2026-05-06 21:01 44.65103 1.81086 33991 ft 453 kts 91°
2026-05-06 21:01 44.64873 1.89912 33992 ft 452 kts 91°
2026-05-06 21:02 44.64641 1.98738 33994 ft 453 kts 92°
2026-05-06 21:02 44.64402 2.07587 33993 ft 453 kts 92°
2026-05-06 21:03 44.64154 2.16426 33994 ft 453 kts 92°
2026-05-06 21:03 44.63895 2.25271 33996 ft 453 kts 92°
2026-05-06 21:04 44.63624 2.34111 33997 ft 453 kts 92°
2026-05-06 21:04 44.63356 2.42957 33997 ft 453 kts 92°
2026-05-06 21:05 44.63182 2.51800 33998 ft 453 kts 84°
2026-05-06 21:05 44.63836 2.56101 34000 ft 450 kts 68°
2026-05-06 21:05 44.65244 2.59989 34000 ft 447 kts 56°
2026-05-06 21:06 44.68589 2.67351 33990 ft 447 kts 56°
2026-05-06 21:06 44.71950 2.74734 33975 ft 449 kts 56°
2026-05-06 21:07 44.75310 2.82157 33978 ft 450 kts 56°
2026-05-06 21:07 44.78664 2.89599 33990 ft 451 kts 56°
2026-05-06 21:08 44.82025 2.97063 33988 ft 451 kts 56°
2026-05-06 21:08 44.85380 3.04538 33989 ft 452 kts 56°
2026-05-06 21:09 44.88715 3.11991 33975 ft 453 kts 57°
2026-05-06 21:09 44.92072 3.19516 33969 ft 454 kts 57°
2026-05-06 21:10 44.95437 3.27068 33979 ft 454 kts 57°
2026-05-06 21:10 44.98794 3.34632 33998 ft 454 kts 57°
2026-05-06 21:11 45.02145 3.42179 34001 ft 453 kts 57°
2026-05-06 21:11 45.05485 3.49740 33982 ft 453 kts 57°
2026-05-06 21:12 45.08811 3.57308 33978 ft 453 kts 57°
2026-05-06 21:12 45.12137 3.64866 33977 ft 453 kts 57°
2026-05-06 21:13 45.15457 3.72439 34006 ft 452 kts 57°
2026-05-06 21:13 45.18764 3.80005 34002 ft 451 kts 57°
2026-05-06 21:14 45.22059 3.87574 33977 ft 451 kts 57°
2026-05-06 21:14 45.25349 3.95164 33971 ft 452 kts 57°
2026-05-06 21:15 45.28649 4.02778 33971 ft 453 kts 57°
2026-05-06 21:15 45.31952 4.10409 33984 ft 453 kts 57°
2026-05-06 21:16 45.35246 4.18038 33996 ft 453 kts 57°
2026-05-06 21:16 45.38530 4.25667 33999 ft 452 kts 57°
2026-05-06 21:17 45.41804 4.33307 33988 ft 453 kts 58°
2026-05-06 21:17 45.45080 4.40981 33984 ft 454 kts 58°
2026-05-06 21:18 45.48358 4.48668 33982 ft 454 kts 58°
2026-05-06 21:18 45.51635 4.56365 33994 ft 454 kts 58°
2026-05-06 21:19 45.54874 4.64024 33989 ft 454 kts 58°
2026-05-06 21:19 45.58155 4.71780 33975 ft 454 kts 58°
2026-05-06 21:20 45.61400 4.79461 33971 ft 455 kts 58°
2026-05-06 21:20 45.64665 4.87211 33964 ft 455 kts 58°
2026-05-06 21:21 45.67921 4.94981 33972 ft 455 kts 58°
2026-05-06 21:21 45.71170 5.02751 33971 ft 455 kts 58°
2026-05-06 21:22 45.74414 5.10523 33959 ft 455 kts 58°
2026-05-06 21:22 45.77653 5.18312 33958 ft 456 kts 59°
2026-05-06 21:23 45.80893 5.26124 33961 ft 457 kts 59°
2026-05-06 21:23 45.84133 5.33971 33960 ft 457 kts 59°
2026-05-06 21:24 45.87373 5.41812 33973 ft 457 kts 59°
2026-05-06 21:24 45.90602 5.49655 33972 ft 456 kts 59°
2026-05-06 21:25 45.93821 5.57509 33957 ft 457 kts 59°
2026-05-06 21:25 45.97045 5.65387 33957 ft 457 kts 59°
2026-05-06 21:26 46.00261 5.73281 33970 ft 458 kts 59°
2026-05-06 21:26 46.03482 5.81206 33985 ft 458 kts 59°
2026-05-06 21:27 46.06698 5.89124 33989 ft 458 kts 59°
2026-05-06 21:27 46.09905 5.97048 33980 ft 457 kts 60°
2026-05-06 21:28 46.13096 6.04968 33989 ft 457 kts 60°
2026-05-06 21:28 46.16289 6.12907 33992 ft 458 kts 60°
2026-05-06 21:29 46.18935 6.19517 33992 ft 458 kts 60°
2026-05-06 21:29 46.22116 6.27486 33998 ft 458 kts 60°
2026-05-06 21:30 46.25300 6.35444 33990 ft 457 kts 60°
2026-05-06 21:30 46.28475 6.43414 33967 ft 458 kts 60°
2026-05-06 21:31 46.31642 6.51409 33955 ft 459 kts 61°
2026-05-06 21:31 46.34810 6.59421 33944 ft 459 kts 61°
2026-05-06 21:32 46.37977 6.67459 33952 ft 459 kts 61°
2026-05-06 21:32 46.42710 6.79511 33962 ft 459 kts 61°
2026-05-06 21:33 46.45858 6.87558 33943 ft 459 kts 62°
2026-05-06 21:33 46.48981 6.95587 33935 ft 461 kts 62°
2026-05-06 21:34 46.52131 7.03700 33936 ft 461 kts 62°
2026-05-06 21:34 46.55286 7.11824 33938 ft 462 kts 62°
2026-05-06 21:35 46.58436 7.19961 33936 ft 462 kts 62°
2026-05-06 21:35 46.61584 7.28116 33940 ft 462 kts 62°
2026-05-06 21:36 46.64722 7.36287 33932 ft 463 kts 62°
2026-05-06 21:36 46.67861 7.44493 33936 ft 464 kts 62°
2026-05-06 21:37 46.71003 7.52725 33934 ft 465 kts 62°
2026-05-06 21:37 46.74139 7.60957 33948 ft 465 kts 62°
2026-05-06 21:38 46.77277 7.69213 33953 ft 465 kts 62°
2026-05-06 21:38 46.80405 7.77480 33956 ft 465 kts 63°
2026-05-06 21:39 46.83524 7.85747 33959 ft 465 kts 63°
2026-05-06 21:39 46.86645 7.94027 33959 ft 465 kts 63°
2026-05-06 21:40 46.89752 8.02310 33957 ft 465 kts 63°
2026-05-06 21:40 46.92851 8.10609 33971 ft 465 kts 63°
2026-05-06 21:41 46.95948 8.18908 33970 ft 464 kts 63°
2026-05-06 21:41 46.99039 8.27221 33942 ft 465 kts 64°
2026-05-06 21:42 47.02127 8.35569 33941 ft 467 kts 64°
2026-05-06 21:42 47.05232 8.43983 33981 ft 474 kts 64°
2026-05-06 21:43 47.08423 8.52639 33948 ft 490 kts 63°
2026-05-06 21:43 47.11691 8.61536 33966 ft 497 kts 63°
2026-05-06 21:44 47.14964 8.70493 33939 ft 500 kts 64°
2026-05-06 21:44 47.18275 8.79571 33948 ft 506 kts 64°
2026-05-06 21:45 47.21593 8.88700 33949 ft 506 kts 64°
2026-05-06 21:45 47.24899 8.97859 33954 ft 507 kts 64°
2026-05-06 21:46 47.28197 9.07015 33958 ft 506 kts 64°
2026-05-06 21:46 47.31469 9.16110 33934 ft 505 kts 64°
2026-05-06 21:47 47.34751 9.25272 33921 ft 506 kts 64°
2026-05-06 21:47 47.38035 9.34468 33922 ft 507 kts 64°
2026-05-06 21:48 47.41319 9.43699 33923 ft 508 kts 64°
2026-05-06 21:48 47.44593 9.52950 33943 ft 508 kts 64°
2026-05-06 21:49 47.47857 9.62189 33954 ft 508 kts 64°
2026-05-06 21:49 47.51116 9.71446 33937 ft 508 kts 64°
2026-05-06 21:50 47.54370 9.80715 33945 ft 507 kts 64°
2026-05-06 21:50 47.57616 9.89993 33944 ft 507 kts 64°
2026-05-06 21:51 47.60846 9.99261 33821 ft 506 kts 64°
2026-05-06 21:51 47.62452 10.03894 33542 ft 505 kts 65°
2026-05-06 21:51 47.64057 10.08531 33270 ft 505 kts 65°
2026-05-06 21:52 47.65657 10.13166 32957 ft 505 kts 65°
2026-05-06 21:52 47.67260 10.17811 32697 ft 506 kts 65°
2026-05-06 21:52 47.68865 10.22458 32428 ft 507 kts 65°
2026-05-06 21:52 47.70474 10.27127 32169 ft 509 kts 65°
2026-05-06 21:53 47.72085 10.31808 31904 ft 510 kts 65°
2026-05-06 21:53 47.73700 10.36515 31332 ft 511 kts 65°
2026-05-06 21:53 47.75327 10.41273 29995 ft 523 kts 66°
2026-05-06 21:53 47.76985 10.46133 28739 ft 528 kts 66°
2026-05-06 21:54 47.78639 10.50975 27893 ft 522 kts 66°
2026-05-06 21:54 47.80277 10.55777 26881 ft 520 kts 66°
2026-05-06 21:54 47.81905 10.60562 25843 ft 517 kts 66°
2026-05-06 21:54 47.83522 10.65327 24825 ft 515 kts 66°
2026-05-06 21:55 47.85130 10.70074 23824 ft 512 kts 66°
2026-05-06 21:55 47.86714 10.74755 23124 ft 501 kts 66°
2026-05-06 21:55 47.88266 10.79353 22297 ft 492 kts 66°
2026-05-06 21:55 47.89790 10.83878 21462 ft 486 kts 66°
2026-05-06 21:56 47.91294 10.88348 20647 ft 479 kts 66°
2026-05-06 21:56 47.92777 10.92763 19876 ft 472 kts 66°
2026-05-06 21:56 47.94224 10.97072 18648 ft 460 kts 65°
2026-05-06 21:56 47.95642 11.01309 17208 ft 452 kts 65°
2026-05-06 21:57 47.97033 11.05481 15797 ft 445 kts 65°
2026-05-06 21:57 47.98398 11.09588 14459 ft 439 kts 65°
2026-05-06 21:57 47.99748 11.13656 13801 ft 434 kts 65°
2026-05-06 21:57 48.01064 11.17616 13613 ft 418 kts 64°
2026-05-06 21:58 48.02330 11.21427 13473 ft 401 kts 65°
2026-05-06 21:58 48.03545 11.25093 13340 ft 387 kts 65°
2026-05-06 21:58 48.04714 11.28627 13199 ft 373 kts 65°
2026-05-06 21:58 48.05865 11.32054 12912 ft 365 kts 61°
2026-05-06 21:59 48.07288 11.35118 12752 ft 354 kts 49°
2026-05-06 21:59 48.09038 11.37615 12619 ft 343 kts 38°
2026-05-06 21:59 48.10858 11.39846 12464 ft 334 kts 38°
2026-05-06 21:59 48.12645 11.42014 12258 ft 328 kts 38°
2026-05-06 22:00 48.14422 11.44159 12118 ft 327 kts 38°
2026-05-06 22:00 48.16193 11.46292 11942 ft 326 kts 38°
2026-05-06 22:00 48.17958 11.48419 11752 ft 325 kts 38°
2026-05-06 22:00 48.19721 11.50542 11574 ft 325 kts 38°
2026-05-06 22:01 48.21465 11.52684 11385 ft 324 kts 43°
2026-05-06 22:01 48.22910 11.55252 11213 ft 322 kts 59°
2026-05-06 22:01 48.23873 11.58258 11028 ft 319 kts 75°
2026-05-06 22:01 48.24308 11.61490 10851 ft 315 kts 87°
2026-05-06 22:02 48.24550 11.64752 10581 ft 313 kts 86°
2026-05-06 22:02 48.24799 11.67980 10270 ft 310 kts 86°
2026-05-06 22:02 48.25051 11.71181 9938 ft 308 kts 86°
2026-05-06 22:02 48.25299 11.74355 9613 ft 305 kts 86°
2026-05-06 22:03 48.25544 11.77512 9228 ft 304 kts 85°
2026-05-06 22:03 48.25784 11.80657 8823 ft 304 kts 85°
2026-05-06 22:03 48.26024 11.83805 8414 ft 303 kts 85°
2026-05-06 22:03 48.26265 11.86953 8010 ft 303 kts 84°
2026-05-06 22:04 48.26505 11.90091 7585 ft 303 kts 84°
2026-05-06 22:04 48.26745 11.93221 7291 ft 298 kts 84°
2026-05-06 22:04 48.26975 11.96238 7157 ft 281 kts 84°
2026-05-06 22:04 48.27186 11.99056 6954 ft 266 kts 83°
2026-05-06 22:05 48.27390 12.01802 6698 ft 263 kts 83°
2026-05-06 22:05 48.27592 12.04510 6390 ft 260 kts 83°
2026-05-06 22:05 48.27823 12.07198 5883 ft 258 kts 74°
2026-05-06 22:05 48.28617 12.09511 5416 ft 244 kts 39°
2026-05-06 22:06 48.29998 12.10770 5059 ft 226 kts
2026-05-06 22:06 48.31487 12.10961 5027 ft 206 kts 348°
2026-05-06 22:06 48.32830 12.10558 5026 ft 191 kts 333°
2026-05-06 22:06 48.33996 12.09683 5031 ft 185 kts 319°
2026-05-06 22:07 48.34950 12.08425 5014 ft 182 kts 306°
2026-05-06 22:07 48.35655 12.06873 4912 ft 179 kts 293°
2026-05-06 22:07 48.36069 12.05146 4725 ft 178 kts 281°
2026-05-06 22:07 48.36185 12.03302 4529 ft 178 kts 268°
2026-05-06 22:08 48.36059 12.01467 4311 ft 174 kts 265°
2026-05-06 22:08 48.35927 11.99688 4072 ft 168 kts 265°
2026-05-06 22:08 48.35799 11.97977 3846 ft 162 kts 265°
2026-05-06 22:08 48.35676 11.96321 3631 ft 156 kts 266°
2026-05-06 22:09 48.35557 11.94741 3427 ft 147 kts 265°
2026-05-06 22:09 48.35446 11.93262 3248 ft 138 kts 265°
2026-05-06 22:09 48.35340 11.91842 3061 ft 137 kts 265°
2026-05-06 22:09 48.35232 11.90405 2864 ft 139 kts 264°
2026-05-06 22:10 48.35125 11.88960 2634 ft 139 kts 264°
2026-05-06 22:10 48.35013 11.87512 2419 ft 141 kts 262°
2026-05-06 22:10 48.34891 11.86043 2208 ft 141 kts 262°
2026-05-06 22:10 48.34783 11.84580 1988 ft 139 kts 261°
2026-05-06 22:11 48.34675 11.83149 1841 ft 137 kts 261°
2026-05-06 22:11 48.34553 11.81707 1668 ft 139 kts 261°
2026-05-06 22:11 48.34450 11.80259 1554 ft 139 kts 262°
2026-05-06 22:11 48.34344 11.78827 1482 ft 133 kts 261°
2026-05-06 22:12 48.34255 11.77753 1467 ft 44 kts 264°
2026-05-06 22:12 48.34251 11.77403 1462 ft 38 kts 271°
2026-05-06 22:12 48.34326 11.77024 1461 ft 24 kts 293°
2026-05-06 22:12 48.34369 11.76875 1465 ft 23 kts 291°
2026-05-06 22:13 48.34469 11.76773 1460 ft 4 kts 70°
2026-05-06 22:13 48.34482 11.76938 1461 ft 28 kts 83°
2026-05-06 22:13 48.34500 11.77200 1466 ft 25 kts 84°
2026-05-06 22:13 48.34511 11.77373 1458 ft 25 kts 84°
2026-05-06 22:14 48.34534 11.77624 1466 ft 23 kts 84°
2026-05-06 22:14 48.34551 11.77841 1464 ft 18 kts 81°
2026-05-06 22:14 48.34683 11.77895 1466 ft 27 kts 355°
2026-05-06 22:14 48.34836 11.77868 1466 ft 21 kts 354°
2026-05-06 22:15 48.34976 11.77844 1461 ft 11 kts 354°
2026-05-06 22:15 48.35012 11.77783 1466 ft 9 kts 270°
2026-05-06 22:15 48.35009 11.77739 1466 ft 2 kts 263°
2026-05-06 22:15 48.35008 11.77733 1466 ft 1 kts 263°